Back to catalog

TIANLIAN-2 06

AliveCommunicationsGEO
NORAD 100140·PAYLOAD·🇨🇳 China

Launched Jul 23, 2026 from Xichang Satellite Launch Center

Loading…

TLE

FreshSource: Space-Track

Epoch: Sep 14, 2026, 07:34 UTC

1 A0140U 26169A   26257.31567977  .00000097  00000-0  00000-0 0  9992
2 A0140   2.9062 298.2763 0003663 356.3048   3.3760  1.00275116   541

Track TIANLIAN-2 06 in real time with AllMySat

Download on the App Store